Lexington Weather

Lexington, Massachusetts, USA

32°F
11/15/2019 3:35am 
  • Lexington Conditions: Clear
  • Temperature: 32.0°F / 0.0°CColder 0.2°F than last hour.
  • Dew Point: 28.9°FDecreased 0.9°Fsince last hour.
  • Relative Humidity: 88%Decreased 3.0% since last hour.
  • Wind: Wind from SW SW 1 mph, 10-min avg: 1 mph, gust: 4 mph
  • Barometer: 30.16 inFalling 0.02  inHg/hr Falling Slowly
  • Visibility: 10 miles
  • Snow Today: 0.0 in
  •   

Regional Weather Roundup
for Boston / Norton, MA

        
000
ASUS41 KBOX 131110
RWRBOX

REGIONAL WEATHER ROUNDUP
NATIONAL WEATHER SERVICE BOSTON/NORTON MA
600 AM EST WED NOV 13 2019

NOTE:  "FAIR" INDICATES FEW OR NO CLOUDS BELOW 12,000 FEET WITH NO 
SIGNIFICANT WEATHER AND/OR OBSTRUCTIONS TO VISIBILITY.

MAZALL-131200-
EASTERN MASSACHUSETTS
  
CITY           SKY/WX    TMP DP  RH WIND       PRES   REMARKS
BOSTON         FAIR      21   1  41 W20G25    30.11R WCI   6          
BEVERLY        FAIR      18   0  45 NW12G20   30.08R WCI   5          
LAWRENCE       FAIR      17  -1  45 W15G24    30.12R WCI   2          
BEDFORD        FAIR      18   1  47 W13G22    30.10R WCI   5          
BLUE HILL      NOT AVBL                                               
NORWOOD        FAIR      21   1  41 W12       30.12R WCI   9          
MARSHFIELD     FAIR      21   3  45 NW12G24   30.09R WCI   9          
PLYMOUTH       FAIR      19   3  49 W10       30.09R WCI   7          
TAUNTON        FAIR      20  -1  40 VRB6G17   30.11R WCI  12          
NEW BEDFORD    FAIR      20   1  43 NW10G22   30.10R WCI   9          
$$

MAZALL-131200-
CAPE COD AND THE ISLANDS
  
CITY           SKY/WX    TMP DP  RH WIND       PRES   REMARKS
FALMOUTH       CLEAR     19   1  45 NW15G25   30.08R WCI   5          
HYANNIS        FAIR      21   4  47 NW10G20   30.06S WCI  10          
CHATHAM        FAIR      23   9  55 NW16G26   30.07R WCI  10          
PROVINCETOWN   FAIR      23  11  60 NW31G38   30.07R WCI   5          
NANTUCKET      FAIR      24   6  46 NW24G35   30.07R WCI   8          
MARTHAS VNYRD  FAIR      22   2  42 NW17G29   30.10R WCI   8          
$$
 
MAZALL-131200-
CENTRAL AND WESTERN MASSACHUSETTS
  
CITY           SKY/WX    TMP DP  RH WIND       PRES   REMARKS
WORCESTER      FAIR      13  -3  49 W17G24    30.05R WCI  -4          
FITCHBURG      FAIR      16   1  51 W16G24    30.11R WCI   1          
ORANGE         FAIR      16  -2  45 NW14      30.12R WCI   2          
SPRINGFIELD    FAIR      17  -1  46 NW10      30.15R WCI   4          
WESTFIELD      FAIR      17   2  51 NW17G23   30.17R WCI   1          
NORTH ADAMS    FLURRIES  12   1  61 W15       30.16R WCI  -4          
PITTSFIELD     FAIR      11   1  64 W16       30.10R WCI  -6          
$$
 
RIZALL-131200-
RHODE ISLAND
  
CITY           SKY/WX    TMP DP  RH WIND       PRES   REMARKS
PROVIDENCE     FAIR      20   2  45 NW17G24   30.13R WCI   5          
NEWPORT        FAIR      21   3  45 NW17G26   30.11R WCI   7          
BLOCK ISLAND   FAIR      20   7  57 NW18G32   30.15R WCI   5          
SMITHFIELD     FAIR      17  -1  45 NW12G26   30.11R WCI   4          
WESTERLY       FAIR      22   3  44 NW13G21   30.16R WCI  10          
$$
 
CTZALL-131200-
CONNECTICUT
  
CITY           SKY/WX    TMP DP  RH WIND       PRES   REMARKS
BRADLEY INTL   FAIR      20   4  50 NW17G28   30.18R WCI   5          
HARTFORD       FAIR      20   4  50 NW10G21   30.21R WCI   9          
BRIDGEPORT     FAIR      22   9  57 W9        30.22R WCI  12          
DANBURY        FAIR      19   7  59 VRB5      30.20R WCI  12          
GROTON         FAIR      22   4  46 NW20G28   30.17R WCI   7          
NEW HAVEN      FAIR      24  12  60 NW6       30.21R WCI  17          
CHESTER        FAIR      19   3  49 NW12G24   30.16R WCI   7          
MERIDEN        FAIR      20   4  50 NW8       30.20R WCI  10          
WILLIMANTIC    FAIR      18   4  54 NW12G18   30.19R WCI   5          
OXFORD         FAIR      16  10  77 NW5       30.16R WCI   9          
$$

MEZ002-015-021-024-NHZ003-005-008-011-012-014-VTZ005-008-131200-
NORTHERN NEW ENGLAND
  
CITY           SKY/WX    TMP DP  RH WIND       PRES   REMARKS
PORTLAND ME    FAIR      14   5  67 W12       30.01R WCI   0          
BANGOR ME      FAIR      12   5  73 W8        29.87R WCI   0          
CONCORD NH     FAIR      12   1  61 W9        30.09R WCI   0          
MANCHESTER NH  FAIR      16  -1  47 NW13G21   30.09R WCI   2          
NASHUA NH      FAIR      16   0  49 W12G20    30.11R WCI   3          
PORTSMOUTH NH  CLEAR     15  -2  47 W16G25    30.05R WCI  -1          
JAFFREY NH     FAIR      12  -4  48 W12G18    30.05R WCI  -2          
KEENE NH       FAIR      13  -1  54 W9        30.12R WCI   1          
BURLINGTON VT  FAIR      11  -1  58 NW14      30.16R WCI  -5          
MT. WASHINGTON BLWGSNOW -17 -17 100 NW81        N/A  VSB 1/16WCI -61  
$$

NYZ052-076-131200-
EASTERN NEW YORK
  
CITY           SKY/WX    TMP DP  RH WIND       PRES   REMARKS
ALBANY         FAIR      15   2  56 NW13      30.24R WCI   1          
NEW YORK CITY  FAIR      25  10  53 NW18G25   30.26R WCI  11          
$$
 
ANZALL-131200-
MARINE OBSERVATIONS
  
STATION/POSITION TIME  TEMP    WIND        PRES    VSBY  WAVE
                       AIR SEA DIR/SP/G                  HT/PER
                 (UTC) (F)     (DEG/KT/KT) (MB)    (MI)  (FT/S)
BOSTON BUOY      1050   24 52  300/ 27/ 33 1017.5R         5/ 5
BUZZARDS BAY     1000          310/ 25/ 29 1019.7R
NANTUCKET SOUND  1040      52                N/A           3/ 4
MASS BAY-STELLWA NOT AVBL
ISLE OF SHOALS   1000   18     290/ 28/ 34 1016.2R
S OF BLOCK IS    1100      58                N/A           8/ 6
$$

......................KEY.........................
  SKY/WX - SKY CONDITION/PRESENT WEATHER
  TMP    - TEMPERATURE IN FAHRENHEIT
  DWPT   - DEWPOINT IN FAHRENHEIT
  RH     - RELATIVE HUMIDITY IN PERCENT
  WIND   - DIRECTION AND SPEED IN MPH
  PRES   - MEAN SEA LEVEL PRESSURE IN INCHES OF HG
  WCI    - WIND CHILL INDEX
  VSB    - VISIBILITY IN MILES
  HX     - HEAT INDEX
  TC     - TEMPERATURE IN CELSIUS
  VRB    - VARIABLE WIND DIRECTION
  N/A    - NOT AVAILABLE
  
      

Other recent Regional Weather Roundups

Fri Nov 15, 3:10am

Fri Nov 15, 3:00am

Fri Nov 15, 2:10am

Fri Nov 15, 2:00am

Fri Nov 15, 1:10am

Fri Nov 15, 1:00am

Fri Nov 15, 12:10am

Fri Nov 15, 12:00am

Thu Nov 14, 11:10pm

Thu Nov 14, 11:00pm

Thu Nov 14, 10:10pm

Thu Nov 14, 10:00pm

Thu Nov 14, 9:10pm

Thu Nov 14, 9:00pm

Thu Nov 14, 8:10pm

Thu Nov 14, 8:00pm

Thu Nov 14, 7:10pm

Thu Nov 14, 7:00pm

Thu Nov 14, 6:10pm

Thu Nov 14, 6:01pm

Thu Nov 14, 5:10pm

Thu Nov 14, 5:00pm

Thu Nov 14, 4:10pm

Thu Nov 14, 4:00pm

Thu Nov 14, 3:10pm

Thu Nov 14, 3:00pm

Thu Nov 14, 2:10pm

Thu Nov 14, 2:00pm

Thu Nov 14, 1:10pm

Thu Nov 14, 1:00pm

Thu Nov 14, 12:10pm

Thu Nov 14, 12:01pm

Thu Nov 14, 11:10am

Thu Nov 14, 11:00am

Thu Nov 14, 10:10am

Thu Nov 14, 10:01am

Thu Nov 14, 9:10am

Thu Nov 14, 9:00am

Thu Nov 14, 8:10am

Thu Nov 14, 8:00am

Thu Nov 14, 7:10am

Thu Nov 14, 7:00am

Thu Nov 14, 6:10am

Thu Nov 14, 6:00am

Thu Nov 14, 5:10am

Thu Nov 14, 5:00am

Thu Nov 14, 4:10am

Thu Nov 14, 4:00am

Thu Nov 14, 3:10am

Thu Nov 14, 3:00am

Thu Nov 14, 2:10am

Thu Nov 14, 2:00am

Thu Nov 14, 1:10am

Thu Nov 14, 1:00am

Thu Nov 14, 12:10am

Thu Nov 14, 12:00am

Wed Nov 13, 11:10pm

Wed Nov 13, 11:00pm

Wed Nov 13, 10:10pm

Wed Nov 13, 10:00pm

Wed Nov 13, 9:10pm

Wed Nov 13, 9:00pm

Wed Nov 13, 8:10pm

Wed Nov 13, 8:00pm

Wed Nov 13, 7:10pm

Wed Nov 13, 7:00pm

Wed Nov 13, 6:10pm

Wed Nov 13, 6:01pm

Wed Nov 13, 5:10pm

Wed Nov 13, 5:00pm

Wed Nov 13, 4:10pm

Wed Nov 13, 4:00pm

Wed Nov 13, 3:10pm

Wed Nov 13, 3:01pm

Wed Nov 13, 2:10pm

Wed Nov 13, 2:01pm

Wed Nov 13, 1:10pm

Wed Nov 13, 1:00pm

Wed Nov 13, 12:10pm

Wed Nov 13, 12:01pm

Wed Nov 13, 11:10am

Wed Nov 13, 11:00am

Wed Nov 13, 10:10am

Wed Nov 13, 10:00am

Wed Nov 13, 9:10am

Wed Nov 13, 9:00am

Wed Nov 13, 8:10am

Wed Nov 13, 8:00am

Wed Nov 13, 7:10am

Wed Nov 13, 7:00am

Wed Nov 13, 6:00am

Wed Nov 13, 5:10am

Wed Nov 13, 5:00am

Wed Nov 13, 4:10am

Wed Nov 13, 4:00am

Wed Nov 13, 3:10am

Wed Nov 13, 3:00am

Wed Nov 13, 2:10am

Wed Nov 13, 2:00am

Wed Nov 13, 1:10am

Wed Nov 13, 1:00am

Wed Nov 13, 12:10am

Wed Nov 13, 12:00am

Tue Nov 12, 11:10pm

Tue Nov 12, 11:00pm

Tue Nov 12, 10:10pm

Tue Nov 12, 10:00pm

Tue Nov 12, 9:10pm

Tue Nov 12, 9:00pm

Tue Nov 12, 8:10pm

Tue Nov 12, 8:00pm

Tue Nov 12, 7:10pm

Tue Nov 12, 7:01pm

Tue Nov 12, 6:10pm

Tue Nov 12, 6:01pm

Tue Nov 12, 5:10pm

Tue Nov 12, 5:01pm

Tue Nov 12, 4:10pm

Tue Nov 12, 4:01pm

Tue Nov 12, 3:10pm

Tue Nov 12, 3:00pm

Tue Nov 12, 2:10pm

Tue Nov 12, 2:00pm

Tue Nov 12, 1:10pm

Tue Nov 12, 1:00pm

Tue Nov 12, 12:10pm

Tue Nov 12, 12:00pm

Tue Nov 12, 11:10am

Tue Nov 12, 11:00am

Tue Nov 12, 10:10am

Tue Nov 12, 10:01am

Tue Nov 12, 9:10am

Tue Nov 12, 9:00am

Tue Nov 12, 8:10am

Tue Nov 12, 8:00am

Tue Nov 12, 7:10am

Tue Nov 12, 7:00am

Tue Nov 12, 6:10am

Tue Nov 12, 6:00am

Tue Nov 12, 5:10am

Tue Nov 12, 5:01am

Tue Nov 12, 4:10am

Tue Nov 12, 4:00am

Meta data:

ID: 45c36d0f-0d2d-4055-9343-e8d9bc9b9637
Link: https://api.weather.gov/products/45c36d0f-0d2d-4055-9343-e8d9bc9b9637